TimePST,TemperatureF,Dew PointF,Humidity,Sea Level PressureIn,VisibilityMPH,Wind Direction,Wind SpeedMPH,Gust SpeedMPH,PrecipitationIn,Events,Conditions,WindDirDegrees,DateUTC
12:10 AM,26.6,24.8,93,30.00,10.0,WSW,3.5,-,N/A,,Partly Cloudy,240,2013-01-10 08:10:00
12:30 AM,26.6,24.8,93,30.00,10.0,West,4.6,-,N/A,,Clear,280,2013-01-10 08:30:00
12:50 AM,26.6,24.8,93,30.00,10.0,West,4.6,-,N/A,,Clear,270,2013-01-10 08:50:00
1:10 AM,26.6,24.8,93,30.01,10.0,Calm,Calm,-,N/A,,Clear,0,2013-01-10 09:10:00
1:30 AM,26.6,24.8,93,30.01,10.0,West,4.6,-,N/A,,Clear,270,2013-01-10 09:30:00
1:50 AM,26.6,24.8,93,30.02,10.0,West,5.8,-,N/A,,Clear,270,2013-01-10 09:50:00
2:10 AM,26.6,24.8,93,30.03,10.0,West,3.5,-,N/A,,Clear,260,2013-01-10 10:10:00
2:30 AM,26.6,24.8,93,30.03,10.0,West,4.6,-,N/A,,Mostly Cloudy,270,2013-01-10 10:30:00
2:50 AM,24.8,23.0,93,30.03,10.0,West,4.6,-,N/A,,Overcast,280,2013-01-10 10:50:00
3:10 AM,24.8,23.0,93,30.04,10.0,West,3.5,-,N/A,,Overcast,270,2013-01-10 11:10:00
3:30 AM,24.8,23.0,93,30.04,10.0,West,3.5,-,N/A,,Mostly Cloudy,260,2013-01-10 11:30:00
3:50 AM,24.8,23.0,93,30.04,10.0,WSW,3.5,-,N/A,,Mostly Cloudy,250,2013-01-10 11:50:00
4:10 AM,24.8,23.0,93,30.04,10.0,West,3.5,-,N/A,,Mostly Cloudy,260,2013-01-10 12:10:00
4:30 AM,24.8,23.0,93,30.04,10.0,West,4.6,-,N/A,,Mostly Cloudy,270,2013-01-10 12:30:00
4:50 AM,24.8,23.0,93,30.04,10.0,West,4.6,-,N/A,,Mostly Cloudy,260,2013-01-10 12:50:00
5:10 AM,24.8,23.0,93,30.05,10.0,West,3.5,-,N/A,,Overcast,260,2013-01-10 13:10:00
5:30 AM,24.8,23.0,93,30.05,10.0,West,5.8,-,N/A,,Overcast,270,2013-01-10 13:30:00
5:50 AM,24.8,23.0,93,30.05,10.0,West,4.6,-,N/A,,Overcast,270,2013-01-10 13:50:00
6:10 AM,24.8,23.0,93,30.06,10.0,West,5.8,-,N/A,,Overcast,260,2013-01-10 14:10:00
6:30 AM,26.6,23.0,86,30.07,10.0,WSW,4.6,-,N/A,,Overcast,250,2013-01-10 14:30:00
6:50 AM,26.6,23.0,86,30.07,10.0,West,5.8,-,N/A,,Overcast,270,2013-01-10 14:50:00
7:10 AM,26.6,24.8,93,30.08,10.0,West,6.9,-,N/A,,Overcast,260,2013-01-10 15:10:00
7:30 AM,26.6,24.8,93,30.09,10.0,West,5.8,-,N/A,,Overcast,260,2013-01-10 15:30:00
7:50 AM,26.6,23.0,86,30.09,10.0,West,5.8,-,N/A,,Overcast,260,2013-01-10 15:50:00
8:10 AM,26.6,23.0,86,30.10,10.0,West,4.6,-,N/A,,Overcast,260,2013-01-10 16:10:00
8:30 AM,26.6,23.0,86,30.10,10.0,West,4.6,-,N/A,,Overcast,270,2013-01-10 16:30:00
8:50 AM,26.6,23.0,86,30.11,10.0,WNW,3.5,-,N/A,,Overcast,290,2013-01-10 16:50:00
9:10 AM,26.6,24.8,93,30.11,9.0,West,4.6,-,N/A,,Overcast,260,2013-01-10 17:10:00
9:30 AM,28.4,24.8,86,30.11,9.0,Calm,Calm,-,N/A,,Mostly Cloudy,0,2013-01-10 17:30:00
9:50 AM,30.2,24.8,80,30.11,7.0,NNW,3.5,-,N/A,,Mostly Cloudy,340,2013-01-10 17:50:00
10:10 AM,32.0,26.6,80,30.11,10.0,Calm,Calm,-,N/A,,Partly Cloudy,0,2013-01-10 18:10:00
10:30 AM,32.0,26.6,80,30.11,10.0,Calm,Calm,-,N/A,,Clear,0,2013-01-10 18:30:00
10:50 AM,32.0,26.6,80,30.11,10.0,Calm,Calm,-,N/A,,Clear,0,2013-01-10 18:50:00
11:10 AM,32.0,26.6,80,30.10,10.0,Calm,Calm,-,N/A,,Clear,0,2013-01-10 19:10:00
11:30 AM,33.8,26.6,75,30.09,10.0,Calm,Calm,-,N/A,,Clear,0,2013-01-10 19:30:00
11:50 AM,33.8,26.6,75,30.08,10.0,Calm,Calm,-,N/A,,Clear,0,2013-01-10 19:50:00
12:30 PM,37.4,24.8,60,30.07,10.0,SE,8.1,-,N/A,,Clear,140,2013-01-10 20:30:00
12:50 PM,37.4,21.2,52,30.06,10.0,Calm,Calm,-,N/A,,Clear,0,2013-01-10 20:50:00
1:10 PM,39.2,23.0,52,30.05,10.0,SW,3.5,-,N/A,,Clear,230,2013-01-10 21:10:00
1:30 PM,39.2,23.0,52,30.05,10.0,NNE,9.2,16.1,N/A,,Clear,20,2013-01-10 21:30:00
1:50 PM,39.2,24.8,56,30.06,10.0,NNE,11.5,23.0,N/A,,Partly Cloudy,20,2013-01-10 21:50:00
2:10 PM,39.2,23.0,52,30.06,10.0,NE,10.4,17.3,N/A,,Partly Cloudy,40,2013-01-10 22:10:00
2:30 PM,39.2,23.0,52,30.06,10.0,NNE,5.8,-,N/A,,Partly Cloudy,30,2013-01-10 22:30:00
2:50 PM,39.2,23.0,52,30.06,10.0,North,4.6,-,N/A,,Scattered Clouds,10,2013-01-10 22:50:00
3:10 PM,39.2,21.2,49,30.06,10.0,NE,6.9,-,N/A,,Mostly Cloudy,40,2013-01-10 23:10:00
3:30 PM,41.0,21.2,45,30.07,10.0,North,9.2,17.3,N/A,,Overcast,360,2013-01-10 23:30:00
3:50 PM,41.0,17.6,39,30.07,10.0,NNW,6.9,18.4,N/A,,Mostly Cloudy,330,2013-01-10 23:50:00
4:10 PM,39.2,17.6,42,30.07,10.0,North,9.2,-,N/A,,Scattered Clouds,360,2013-01-11 00:10:00
4:30 PM,37.4,21.2,52,30.07,10.0,West,3.5,-,N/A,,Partly Cloudy,260,2013-01-11 00:30:00
4:50 PM,35.6,24.8,65,30.08,10.0,Calm,Calm,-,N/A,,Scattered Clouds,0,2013-01-11 00:50:00
5:10 PM,33.8,23.0,65,30.08,10.0,ENE,3.5,-,N/A,,Mostly Cloudy,60,2013-01-11 01:10:00
5:30 PM,32.0,24.8,75,30.09,10.0,West,3.5,-,N/A,,Mostly Cloudy,260,2013-01-11 01:30:00
5:50 PM,35.6,23.0,60,30.09,10.0,North,4.6,-,N/A,,Overcast,360,2013-01-11 01:50:00
6:10 PM,32.0,24.8,75,30.09,10.0,WNW,3.5,-,N/A,,Mostly Cloudy,290,2013-01-11 02:10:00
6:30 PM,30.2,24.8,80,30.09,9.0,West,4.6,-,N/A,,Partly Cloudy,280,2013-01-11 02:30:00
6:50 PM,30.2,24.8,80,30.09,10.0,WNW,3.5,-,N/A,,Clear,290,2013-01-11 02:50:00
7:10 PM,28.4,24.8,86,30.10,10.0,Calm,Calm,-,N/A,,Partly Cloudy,0,2013-01-11 03:10:00
7:30 PM,30.2,24.8,80,30.10,10.0,West,4.6,-,N/A,,Mostly Cloudy,270,2013-01-11 03:30:00
7:50 PM,28.4,23.0,80,30.09,10.0,West,3.5,-,N/A,,Overcast,260,2013-01-11 03:50:00
8:30 PM,28.4,23.0,80,30.10,10.0,Calm,Calm,-,N/A,,Mostly Cloudy,0,2013-01-11 04:30:00
9:30 PM,28.4,23.0,80,30.11,10.0,NW,3.5,-,N/A,,Mostly Cloudy,310,2013-01-11 05:30:00
9:50 PM,28.4,23.0,80,30.11,10.0,West,3.5,-,N/A,,Mostly Cloudy,260,2013-01-11 05:50:00
10:10 PM,28.4,23.0,80,30.12,10.0,WSW,4.6,-,N/A,,Mostly Cloudy,240,2013-01-11 06:10:00
10:30 PM,26.6,23.0,86,30.12,10.0,WNW,4.6,-,N/A,,Mostly Cloudy,300,2013-01-11 06:30:00
10:50 PM,28.4,23.0,80,30.12,10.0,WSW,3.5,-,N/A,,Overcast,240,2013-01-11 06:50:00
11:10 PM,28.4,23.0,80,30.12,10.0,West,4.6,-,N/A,,Overcast,270,2013-01-11 07:10:00
11:30 PM,28.4,23.0,80,30.12,10.0,WNW,5.8,-,N/A,,Overcast,290,2013-01-11 07:30:00
11:50 PM,28.4,24.8,86,30.13,10.0,WSW,3.5,-,N/A,,Overcast,240,2013-01-11 07:50:00